www.pogodaiklimat.ru

Погода и климат >> Архив погоды >> Канада >> Нунавут >> Форт Росс


ПОГОДА в Форт Росс

  • Прогноз погоды в Форт Росс
  • Монитор погоды в Форт Росс

АРХИВ ПОГОДЫ в Форт Росс

Время (UTC), дата Ветер
(напр.,м/с)
 
Видим.   Явления Облачность Т
(С)
Тd
(С)
f
(%)
Тe
(С)
Тes
(С)
Комфортность P
(гПа)
Po
(гПа)
Тmin
(С)
Tmax
(С)
R
(мм)
R24
(мм)
S
(см)
09 14.04 З 6 н/о н/о -27.5 -30.8 73 -40 -40 опасность
обморожения
1016.0 1014.6
12 14.04 ЮЗ 6 н/о н/о -27.1 -30.7 71 -40 -40 опасность
обморожения
1016.0 1014.6 -27.9 -17.6 11
15 14.04 З 5 н/о н/о -24.8 -29.5 65 -36 -36 опасность
обморожения
1015.6 1014.2
18 14.04 З 7 н/о н/о -24.5 -28.7 68 -38 -38 опасность
обморожения
1015.4 1014.0 -27.9 -23.7
21 14.04 З 9 н/о н/о -24.9 -29.0 69 -40 -40 опасность
обморожения
1015.8 1014.4
00 15.04 З 11 н/о н/о -26.4 -30.2 70 -43 -43 опасность
обморожения
1015.8 1014.4 -27.9 -23.7
03 15.04 З 7 н/о н/о -26.6 -29.6 76 -40 -40 опасность
обморожения
1015.7 1014.3
06 15.04 З 7 н/о н/о -27.6 -30.7 75 -42 -42 опасность
обморожения
1015.8 1014.4 -27.9 -23.7 1
09 15.04 ЮЗ 7 н/о н/о -27.7 -30.9 74 -42 -42 опасность
обморожения
1015.3 1013.9
12 15.04 ЮЗ 6 н/о н/о -27.6 -30.6 75 -41 -41 опасность
обморожения
1015.3 1013.9 -28.2 -23.7 11
15 15.04 ЮЗ 5 н/о н/о -26.7 -29.8 75 -39 -39 опасность
обморожения
1014.1 1012.7
18 15.04 З 5 н/о н/о -24.6 -27.9 74 -36 -36 опасность
обморожения
1013.8 1012.4 -28.2 -24.4
21 15.04 З 7 н/о н/о -22.9 -25.7 78 -36 -36 опасность
обморожения
1013.4 1012.0
00 16.04 З 7 н/о н/о -22.4 -25.4 76 -35 -35 опасность
обморожения
1013.4 1012.0 -28.2 -22.0
03 16.04 З 8 н/о н/о -23.5 -26.4 77 -37 -37 опасность
обморожения
1013.0 1011.6
06 16.04 ЮЗ 7 н/о н/о -24.5 -27.4 77 -37 -37 опасность
обморожения
1013.6 1012.2 -28.2 -22.0 23
09 16.04 ЮЗ 5 н/о н/о -25.0 -27.8 77 -36 -36 опасность
обморожения
1014.4 1013.0
12 16.04 ЮЗ 5 н/о н/о -24.8 -27.8 76 -36 -36 опасность
обморожения
1015.2 1013.8 -25.5 -22.0 11
15 16.04 ЮЗ 5 н/о н/о -24.5 -27.8 74 -35 -35 опасность
обморожения
1015.6 1014.2
18 16.04 З 9 н/о н/о -22.9 -26.3 74 -37 -37 опасность
обморожения
1016.0 1014.6 -25.5 -22.5
21 16.04 З 13 н/о н/о -21.7 -24.6 77 -38 -38 опасность
обморожения
1015.4 1014.0
00 17.04 З 6 н/о н/о -21.7 -25.4 72 -33 -33 опасность
обморожения
1017.5 1016.1 -25.5 -20.1
03 17.04 Ю 3 н/о н/о -23.9 -27.0 75 -32 -32 опасность
обморожения
1017.4 1016.0
06 17.04 ЮЗ 7 н/о н/о -24.3 -27.4 75 -37 -37 опасность
обморожения
1016.9 1015.5 -25.5 -20.1 21
09 17.04 ЮЗ 6 н/о н/о -24.1 -27.1 76 -36 -36 опасность
обморожения
1017.1 1015.7
12 17.04 З 6 н/о н/о -22.5 -26.2 72 -34 -34 опасность
обморожения
1016.4 1015.0 -24.8 -20.1 11
15 17.04 З 7 н/о н/о -22.5 -26.1 72 -35 -35 опасность
обморожения
1015.8 1014.4
18 17.04 З 7 н/о н/о -21.9 -25.9 70 -34 -34 опасность
обморожения
1015.2 1013.8 -24.8 -20.8
21 17.04 ЮЗ 3 н/о н/о -20.7 -25.0 68 -29 -29 1015.4 1014.0
00 18.04 З 6 н/о н/о -21.9 -26.5 66 -33 -33 опасность
обморожения
1015.2 1013.8 -24.8 -19.7
03 18.04 З 4 н/о н/о -24.6 -28.3 71 -35 -35 опасность
обморожения
1015.3 1013.9
06 18.04 ЮЗ 4 н/о н/о -24.8 -28.2 73 -34 -34 опасность
обморожения
1015.0 1013.6 -25.0 -19.7 2
09 18.04 З 13 н/о н/о -23.9 -26.4 80 -40 -40 опасность
обморожения
1013.7 1012.3
12 18.04 З 14 н/о н/о -23.0 -25.5 80 -40 -40 опасность
обморожения
1012.0 1010.6 -25.0 -19.7 11
15 18.04 З 17 н/о н/о -21.9 -24.2 82 -39 -39 опасность
обморожения
1010.7 1009.3
18 18.04 З 12 н/о н/о -19.9 -22.1 83 -35 -35 опасность
обморожения
1010.3 1008.9 -25.0 -19.9
21 18.04 З 9 н/о н/о -19.1 -21.7 80 -32 -32 опасность
обморожения
1010.2 1008.8
00 19.04 З 12 н/о н/о -19.5 -21.9 81 -34 -34 опасность
обморожения
1008.7 1007.3 -24.9 -18.7
03 19.04 СЗ 2 н/о н/о -21.2 -23.6 81 -27 -27 1008.4 1007.0
06 19.04 С 6 н/о н/о -26.1 -28.8 78 -39 -39 опасность
обморожения
1008.7 1007.3 -26.1 -18.7 14
09 19.04 С 5 н/о н/о -27.7 -30.6 76 -39 -39 опасность
обморожения
1009.0 1007.6
12 19.04 н/о {осадки} н/о -25.0 -27.9 77 1009.4 1008.0 -28.0 -18.7 0.2 10
15 19.04 С 3 н/о н/о -23.5 -26.9 74 -31 -31 опасность
обморожения
1009.6 1008.2
18 19.04 С 4 н/о н/о -22.7 -26.7 70 -32 -32 опасность
обморожения
1009.5 1008.1 -28.0 -22.6
21 19.04 С 5 н/о н/о -23.1 -26.8 72 -33 -33 опасность
обморожения
1009.9 1008.5
00 20.04 н/о н/о -23.1 -26.7 72 1010.4 1009.0 -28.0 -22.3
03 20.04 н/о н/о -25.0 -27.8 77 1011.3 1009.9
06 20.04 С 3 н/о н/о -28.6 -31.8 74 -38 -38 опасность
обморожения
1011.9 1010.5 -28.6 -22.3
09 20.04 ЮВ 1 н/о н/о -28.5 -31.7 74 -33 -33 опасность
обморожения
1013.0 1011.6
12 20.04 З 1 н/о н/о -23.6 -27.8 68 -27 -27 1013.8 1012.4 -29.2 -22.3 10
15 20.04 З 4 н/о н/о -21.1 -26.6 61 -30 -30 1014.1 1012.7
18 20.04 З 6 н/о н/о -21.2 -26.4 63 -32 -32 опасность
обморожения
1014.6 1013.2 -29.2 -20.5
21 20.04 З 9 н/о н/о -22.5 -28.0 61 -36 -36 опасность
обморожения
1015.3 1013.9
00 21.04 З 9 н/о н/о -23.1 -28.3 62 -37 -37 опасность
обморожения
1015.8 1014.4 -29.2 -19.4
03 21.04 З 7 н/о н/о -24.7 -28.5 71 -37 -37 опасность
обморожения
1015.2 1013.8
06 21.04 ЮЗ 8 н/о н/о -25.5 -29.0 72 -39 -39 опасность
обморожения
1014.3 1012.9 -29.2 -19.4 1

 

Местоположение метеостанции Форт Росс (Нунавут, Канада): широта 44.23 долгота -78.36 высота над уровнем моря 191 м.

В архиве по умолчанию представлена погода в Форт Росс за последнюю неделю. Архивные данные за месяц целиком и за предыдущие месяцы, начиная с января 2011 года, Вы можете получить, выбрав интересующий диапазон дат из раскрывающегося списка и нажав кнопку "Ввод!".


*Определитесь, кто Вы:
робот инопланетянин человек

Внимание! Время в таблицах - всемирное. Для получения местного времени необходимо прибавить поправку, которая равна -5 ч.

Смотрите также архив погоды в соседних городах и на ближайших метеорологических станциях:

Погода в Питерборо (Онтарио, Канада) (14 км)
Погода в Кобурге (Онтарио, Канада) (35 км)
Погода в Ошаве (Онтарио, Канада) (54 км)
Погода в Трентоне (Онтарио, Канада) (67 км)
Погода в Лагун-Сити (Онтарио, Канада) (75 км)
Погода в Шируотере (Новая Шотландия, Канада) (89 км)
Погода в Торонто Баттонвилл (Онтарио, Канада) (89 км)
Погода в Барри (Онтарио, Канада) (98 км)
Погода в Сешелте (Британская Колумбия, Канада) (101 км)
Погода в Банкрофте (Онтарио, Канада) (101 км)

Пояснения к столбцам:

Ветер - указаны скорость ветра в м/с - средняя за 10 мин, порывы в срок и между сроками (в фигурных скобках) и направление, откуда дует ветер: С - северный, СВ - северо-восточный, В - восточный, ЮВ - юго-восточный, Ю - южный, ЮЗ - юго-западный, З - западный, СЗ - северо-западный.
Видимость - горизонтальная дальность видимости в метрах или километрах. При видимости от 1 до 10 км при отсутствии осадков обычно наблюдается дымка, при ухудшении видимости до 1 км и менее - туман. В сухую погоду видимость может ухудшаться дымом, пылью или мглою.
Явления - указаны атмосферные явления, наблюдавшиеся в срок или в последний час перед сроком; фигурными скобками обозначены явления, наблюдавшиеся между сроками (за 1-3 часа до срока); квадратными скобками обозначены град или гололедные отложения с указанием их диаметра в мм.
Облачность - указаны через наклонную черту общая и нижняя облачность в баллах и высота нижней границы облаков в метрах; квадратными скобками обозначены формы облаков: Ci - перистые, Cs - перисто-слоистые, Cc - перисто-кучевые, Ac - высококучевые, As - высокослоистые, Sc - слоисто-кучевые, Ns - слоисто-дождевые, Cu - кучевые, Cb - кучево-дождевые. Подробнее классификацию облаков см. в Атласе облаков (PDF).
T - Температура воздуха - температура, измеренная на высоте 2 м над землей.
Td - Температура точки росы - температура, при понижении до которой содержащийся в воздухе водяной пар достигнет насыщения.
f - Относительная влажность воздуха - влажноcть воздуха, измеренная на высоте 2 м над землей.
Te - Эффективная температура - температура, которую ощущает одетый по сезону человек в тени. Характеристика душности погоды. При расчете учитывается влияние влажности воздуха и скорости ветра на теплоощущения человека.
Tes - Эффективная температура на солнце - температура, которую ощущает человек, с поправкой на солнечный нагрев. Характеристика знойности погоды. Зависит от высоты солнца над горизонтом, облачности и скорости ветра. Ночью, в пасмурную погоду, а также при ветре 12 м/с и более поправка равна нулю.
P - Атмосферное давление - приведенное к уровню моря атмосферное давление.
Po - Атмосферное давление - измеренное на уровне метеостанции атмосферное давление.
Tmin - Минимальная температура - минимум температуры воздуха на высоте 2 м над землей.
Tmax - Максимальная температура - максимум температуры воздуха на высоте 2 м над землей.
R - Количество осадков - Количество выпавших осадков за период времени, мм. При наведении курсора мыши на число - период времени, за который выпало указанное количество осадков.
R24 - Количество осадков - Количество выпавших осадков за 24 часа, мм.
S - Снежный покров - Высота снежного покрова, см. При наведении курсора мыши на число - состояние снежного покрова и степень покрытия местности в баллах.